NOZ1358 ENBR-EGPH

Flight info

Callsign NOZ1358
Flight time 1h 11m
Altitude 36000
Route EPOTU DCT BEREP DCT ADN DCT NAXIL/N0364F240 P600 PTH
Aircraft B738/M-SDE2E3GHIJ1LRWXY/LB1

Departure

Time 2026-04-22 05:40
Airport Bergen Airport, Flesland (ENBR)

Arrival

Time 2026-04-22 06:51
Airport Edinburgh Airport (EGPH)
Time Latitude Longitude Altitude Speed Heading
2026-04-22 05:15 60.28827 5.22618 172 ft 0 kts 34°
2026-04-22 05:31 60.28810 5.22595 172 ft 4 kts 34°
2026-04-22 05:32 60.28788 5.22564 171 ft 4 kts 34°
2026-04-22 05:32 60.28775 5.22546 169 ft 2 kts 34°
2026-04-22 05:34 60.28786 5.22541 170 ft 3 kts 327°
2026-04-22 05:35 60.28800 5.22433 165 ft 11 kts 275°
2026-04-22 05:35 60.28849 5.22303 161 ft 13 kts 346°
2026-04-22 05:35 60.28938 5.22273 161 ft 13 kts 350°
2026-04-22 05:35 60.29026 5.22243 161 ft 13 kts 351°
2026-04-22 05:36 60.29114 5.22214 162 ft 13 kts 351°
2026-04-22 05:36 60.29213 5.22181 162 ft 16 kts 350°
2026-04-22 05:36 60.29332 5.22140 160 ft 20 kts 350°
2026-04-22 05:36 60.29480 5.22090 155 ft 24 kts 351°
2026-04-22 05:37 60.29649 5.22035 147 ft 25 kts 350°
2026-04-22 05:37 60.29815 5.21978 149 ft 23 kts 351°
2026-04-22 05:37 60.29972 5.21926 155 ft 22 kts 351°
2026-04-22 05:37 60.30125 5.21875 163 ft 22 kts 351°
2026-04-22 05:38 60.30273 5.21825 165 ft 21 kts 349°
2026-04-22 05:38 60.30417 5.21774 172 ft 21 kts 351°
2026-04-22 05:38 60.30554 5.21730 178 ft 20 kts 350°
2026-04-22 05:38 60.30663 5.21617 181 ft 15 kts 278°
2026-04-22 05:39 60.30656 5.21478 183 ft 8 kts 261°
2026-04-22 05:39 60.30632 5.21390 183 ft 8 kts 190°
2026-04-22 05:39 60.30610 5.21394 182 ft 0 kts 171°
2026-04-22 05:39 60.30457 5.21444 172 ft 58 kts 170°
2026-04-22 05:40 60.29816 5.21658 154 ft 125 kts 170°
2026-04-22 05:40 60.28789 5.22004 253 ft 166 kts 169°
2026-04-22 05:40 60.27658 5.22467 869 ft 167 kts 166°
2026-04-22 05:40 60.26512 5.22954 1526 ft 173 kts 170°
2026-04-22 05:41 60.25315 5.23288 2149 ft 175 kts 173°
2026-04-22 05:41 60.24083 5.23601 2714 ft 181 kts 173°
2026-04-22 05:41 60.22807 5.23931 3228 ft 192 kts 173°
2026-04-22 05:41 60.21418 5.24060 3626 ft 209 kts 192°
2026-04-22 05:42 60.20137 5.22628 3841 ft 221 kts 233°
2026-04-22 05:42 60.19384 5.19908 4273 ft 227 kts 248°
2026-04-22 05:42 60.18650 5.16886 4497 ft 252 kts 246°
2026-04-22 05:42 60.17820 5.13650 4965 ft 265 kts 245°
2026-04-22 05:43 60.16947 5.10349 5644 ft 268 kts 244°
2026-04-22 05:43 60.16058 5.07053 6451 ft 268 kts 244°
2026-04-22 05:43 60.15162 5.03775 7216 ft 269 kts 243°
2026-04-22 05:43 60.14261 5.00511 7889 ft 273 kts 243°
2026-04-22 05:44 60.13328 4.97152 8593 ft 277 kts 243°
2026-04-22 05:44 60.12380 4.93759 9339 ft 280 kts 242°
2026-04-22 05:44 60.11420 4.90335 10097 ft 283 kts 242°
2026-04-22 05:44 60.10441 4.86857 10763 ft 290 kts 242°
2026-04-22 05:45 60.09410 4.83198 10952 ft 313 kts 242°
2026-04-22 05:45 60.08304 4.79282 11308 ft 329 kts 242°
2026-04-22 05:45 60.07175 4.75304 11927 ft 335 kts 242°
2026-04-22 05:45 60.06019 4.71239 12672 ft 338 kts 242°
2026-04-22 05:46 60.04845 4.67118 13418 ft 342 kts 241°
2026-04-22 05:46 60.03655 4.62949 14150 ft 346 kts 240°
2026-04-22 05:46 60.02453 4.58746 14864 ft 349 kts 240°
2026-04-22 05:46 60.01240 4.54514 15603 ft 352 kts 240°
2026-04-22 05:47 60.00017 4.50254 16359 ft 355 kts 240°
2026-04-22 05:47 59.98783 4.45962 17100 ft 357 kts 240°
2026-04-22 05:47 59.97535 4.41626 17774 ft 362 kts 239°
2026-04-22 05:47 59.96273 4.37254 18481 ft 365 kts 239°
2026-04-22 05:48 59.95017 4.32906 19180 ft 367 kts 239°
2026-04-22 05:48 59.93731 4.28468 19753 ft 372 kts 239°
2026-04-22 05:48 59.92426 4.23968 20296 ft 377 kts 239°
2026-04-22 05:48 59.91104 4.19415 20890 ft 380 kts 239°
2026-04-22 05:49 59.89774 4.14845 21493 ft 383 kts 239°
2026-04-22 05:49 59.88425 4.10225 22052 ft 387 kts 239°
2026-04-22 05:49 59.87033 4.05592 22634 ft 390 kts 237°
2026-04-22 05:49 59.85554 4.01119 23194 ft 393 kts 235°
2026-04-22 05:50 59.83996 3.96615 23736 ft 397 kts 235°
2026-04-22 05:50 59.82406 3.92083 24303 ft 398 kts 233°
2026-04-22 05:50 59.80826 3.87583 24964 ft 396 kts 233°
2026-04-22 05:50 59.79234 3.83038 25289 ft 403 kts 232°
2026-04-22 05:51 59.77642 3.78478 25618 ft 409 kts 234°
2026-04-22 05:51 59.76017 3.73809 26021 ft 412 kts 233°
2026-04-22 05:51 59.74378 3.69101 26425 ft 416 kts 233°
2026-04-22 05:51 59.72721 3.64348 26833 ft 419 kts 233°
2026-04-22 05:52 59.71053 3.59570 27185 ft 424 kts 233°
2026-04-22 05:52 59.69388 3.54803 27496 ft 429 kts 233°
2026-04-22 05:52 59.67682 3.49939 27914 ft 430 kts 233°
2026-04-22 05:52 59.65963 3.45046 28286 ft 434 kts 233°
2026-04-22 05:53 59.64230 3.40120 28617 ft 438 kts 233°
2026-04-22 05:53 59.62483 3.35161 28971 ft 441 kts 233°
2026-04-22 05:53 59.60718 3.30161 29303 ft 445 kts 233°
2026-04-22 05:53 59.58938 3.25131 29659 ft 448 kts 233°
2026-04-22 05:54 59.57152 3.20093 30152 ft 447 kts 232°
2026-04-22 05:54 59.55388 3.15125 30593 ft 447 kts 233°
2026-04-22 05:54 59.53599 3.10102 30919 ft 449 kts 232°
2026-04-22 05:54 59.51793 3.05043 31133 ft 453 kts 232°
2026-04-22 05:55 59.49970 2.99953 31365 ft 456 kts 232°
2026-04-22 05:55 59.48140 2.94849 31696 ft 456 kts 232°
2026-04-22 05:55 59.46311 2.89758 32065 ft 456 kts 232°
2026-04-22 05:55 59.44477 2.84665 32388 ft 456 kts 232°
2026-04-22 05:56 59.42639 2.79571 32676 ft 458 kts 232°
2026-04-22 05:56 59.40792 2.74465 32988 ft 458 kts 231°
2026-04-22 05:56 59.38940 2.69355 33323 ft 458 kts 231°
2026-04-22 05:56 59.37090 2.64264 33636 ft 459 kts 231°
2026-04-22 05:57 59.35233 2.59161 33924 ft 460 kts 231°
2026-04-22 05:57 59.33394 2.54121 34290 ft 460 kts 231°
2026-04-22 05:57 59.31536 2.49036 34659 ft 458 kts 230°
2026-04-22 05:57 59.29680 2.43971 34916 ft 458 kts 231°
2026-04-22 05:58 59.27830 2.38930 35344 ft 453 kts 231°
2026-04-22 05:58 59.25996 2.33941 35707 ft 451 kts 231°
2026-04-22 05:58 59.24159 2.28960 35944 ft 451 kts 231°
2026-04-22 05:58 59.22319 2.23983 36190 ft 451 kts 231°
2026-04-22 05:59 59.20477 2.19010 36439 ft 451 kts 231°
2026-04-22 05:59 59.18629 2.14032 36501 ft 455 kts 231°
2026-04-22 05:59 59.14886 2.03979 36520 ft 459 kts 231°
2026-04-22 06:00 59.11144 1.93965 36519 ft 454 kts 231°
2026-04-22 06:00 59.07448 1.84111 36530 ft 451 kts 231°
2026-04-22 06:01 59.03742 1.74277 36524 ft 449 kts 231°
2026-04-22 06:01 58.99999 1.64677 36538 ft 447 kts 229°
2026-04-22 06:02 58.96175 1.55136 36525 ft 446 kts 229°
2026-04-22 06:02 58.92354 1.45627 36531 ft 446 kts 229°
2026-04-22 06:03 58.88562 1.36188 36532 ft 446 kts 229°
2026-04-22 06:03 58.84743 1.26702 36533 ft 447 kts 229°
2026-04-22 06:04 58.80904 1.17200 36539 ft 448 kts 229°
2026-04-22 06:04 58.77071 1.07752 36537 ft 450 kts 229°
2026-04-22 06:05 58.73216 0.98287 36547 ft 451 kts 229°
2026-04-22 06:05 58.69327 0.88778 36545 ft 451 kts 229°
2026-04-22 06:06 58.65449 0.79333 36537 ft 452 kts 229°
2026-04-22 06:06 58.61546 0.69867 36545 ft 452 kts 229°
2026-04-22 06:07 58.57623 0.60391 36558 ft 452 kts 229°
2026-04-22 06:07 58.53697 0.50945 36541 ft 452 kts 229°
2026-04-22 06:08 58.49790 0.41580 36543 ft 452 kts 229°
2026-04-22 06:08 58.45858 0.32195 36561 ft 452 kts 229°
2026-04-22 06:09 58.41920 0.22832 36548 ft 451 kts 229°
2026-04-22 06:09 58.37989 0.13523 36548 ft 450 kts 229°
2026-04-22 06:10 58.34056 0.04245 36550 ft 449 kts 229°
2026-04-22 06:10 58.30141 -0.04954 36559 ft 448 kts 229°
2026-04-22 06:11 58.26198 -0.14181 36554 ft 448 kts 228°
2026-04-22 06:11 58.22285 -0.23303 36554 ft 448 kts 228°
2026-04-22 06:12 58.18334 -0.32477 36560 ft 447 kts 229°
2026-04-22 06:12 58.14411 -0.41553 36551 ft 447 kts 228°
2026-04-22 06:13 58.10451 -0.50679 36555 ft 447 kts 228°
2026-04-22 06:13 58.06494 -0.59762 36555 ft 447 kts 228°
2026-04-22 06:14 58.02529 -0.68829 36555 ft 447 kts 228°
2026-04-22 06:14 57.98584 -0.77815 36556 ft 447 kts 228°
2026-04-22 06:15 57.94609 -0.86836 36558 ft 447 kts 228°
2026-04-22 06:15 57.90649 -0.95788 36565 ft 447 kts 228°
2026-04-22 06:16 57.86652 -1.04790 36559 ft 447 kts 228°
2026-04-22 06:16 57.82657 -1.13752 36557 ft 447 kts 228°
2026-04-22 06:17 57.78682 -1.22637 36568 ft 447 kts 228°
2026-04-22 06:17 57.74679 -1.31552 36558 ft 447 kts 228°
2026-04-22 06:18 57.70661 -1.40463 36560 ft 447 kts 228°
2026-04-22 06:18 57.66665 -1.49295 36561 ft 447 kts 228°
2026-04-22 06:19 57.62647 -1.58143 36568 ft 447 kts 228°
2026-04-22 06:19 57.58616 -1.66983 36555 ft 447 kts 228°
2026-04-22 06:20 57.54586 -1.75791 36543 ft 447 kts 227°
2026-04-22 06:20 57.52558 -1.80210 36271 ft 448 kts 227°
2026-04-22 06:20 57.51218 -1.83128 36114 ft 446 kts 227°
2026-04-22 06:21 57.49200 -1.87511 35872 ft 444 kts 227°
2026-04-22 06:21 57.47183 -1.91886 35638 ft 444 kts 227°
2026-04-22 06:21 57.45167 -1.96250 35381 ft 444 kts 227°
2026-04-22 06:21 57.43181 -2.00541 34794 ft 444 kts 227°
2026-04-22 06:22 57.41162 -2.04895 34180 ft 444 kts 227°
2026-04-22 06:22 57.39141 -2.09247 33499 ft 444 kts 227°
2026-04-22 06:22 57.37122 -2.13589 32862 ft 443 kts 227°
2026-04-22 06:22 57.35107 -2.17914 32207 ft 443 kts 227°
2026-04-22 06:23 57.33093 -2.22225 31547 ft 442 kts 227°
2026-04-22 06:23 57.31040 -2.26409 31088 ft 435 kts 222°
2026-04-22 06:23 57.28747 -2.29900 30630 ft 427 kts 213°
2026-04-22 06:23 57.26316 -2.33022 30102 ft 422 kts 212°
2026-04-22 06:24 57.21547 -2.39096 29137 ft 410 kts 213°
2026-04-22 06:24 57.19250 -2.42046 28661 ft 405 kts 213°
2026-04-22 06:24 57.16927 -2.45044 28177 ft 400 kts 213°
2026-04-22 06:25 57.14692 -2.47935 27718 ft 396 kts 213°
2026-04-22 06:25 57.12448 -2.50839 27238 ft 392 kts 213°
2026-04-22 06:25 57.10223 -2.53717 26786 ft 388 kts 213°
2026-04-22 06:25 57.08018 -2.56566 26325 ft 385 kts 213°
2026-04-22 06:26 57.05831 -2.59386 25874 ft 382 kts 213°
2026-04-22 06:26 57.03680 -2.62157 25434 ft 379 kts 213°
2026-04-22 06:26 57.01525 -2.64928 24994 ft 376 kts 213°
2026-04-22 06:26 56.99382 -2.67681 24551 ft 374 kts 213°
2026-04-22 06:27 56.97275 -2.70381 24123 ft 371 kts 213°
2026-04-22 06:27 56.95161 -2.73085 23597 ft 369 kts 213°
2026-04-22 06:27 56.93056 -2.75750 23160 ft 365 kts 213°
2026-04-22 06:27 56.90968 -2.78382 22713 ft 362 kts 213°
2026-04-22 06:28 56.88898 -2.80992 22280 ft 359 kts 213°
2026-04-22 06:28 56.86851 -2.83581 21854 ft 356 kts 213°
2026-04-22 06:28 56.84820 -2.86150 21424 ft 354 kts 213°
2026-04-22 06:28 56.82805 -2.88699 21000 ft 351 kts 213°
2026-04-22 06:29 56.80795 -2.91238 20577 ft 349 kts 213°
2026-04-22 06:29 56.78826 -2.93719 20179 ft 347 kts 212°
2026-04-22 06:29 56.76845 -2.96211 19761 ft 345 kts 212°
2026-04-22 06:29 56.74868 -2.98703 19350 ft 343 kts 212°
2026-04-22 06:30 56.72909 -3.01176 18942 ft 342 kts 212°
2026-04-22 06:30 56.70980 -3.03607 18495 ft 340 kts 212°
2026-04-22 06:30 56.69032 -3.06058 18057 ft 338 kts 212°
2026-04-22 06:30 56.67100 -3.08478 17641 ft 336 kts 212°
2026-04-22 06:31 56.65184 -3.10870 17254 ft 333 kts 212°
2026-04-22 06:31 56.63295 -3.13226 16843 ft 331 kts 212°
2026-04-22 06:31 56.61398 -3.15588 16439 ft 329 kts 212°
2026-04-22 06:31 56.59519 -3.17926 16047 ft 327 kts 212°
2026-04-22 06:32 56.57649 -3.20252 15652 ft 325 kts 212°
2026-04-22 06:32 56.55787 -3.22564 15269 ft 323 kts 212°
2026-04-22 06:32 56.53932 -3.24865 14880 ft 321 kts 212°
2026-04-22 06:32 56.52086 -3.27155 14505 ft 320 kts 212°
2026-04-22 06:33 56.50277 -3.29394 14091 ft 318 kts 212°
2026-04-22 06:33 56.48449 -3.31655 13675 ft 317 kts 212°
2026-04-22 06:33 56.46627 -3.33905 13278 ft 315 kts 212°
2026-04-22 06:33 56.44819 -3.36133 12900 ft 313 kts 212°
2026-04-22 06:34 56.43036 -3.38368 12563 ft 310 kts 213°
2026-04-22 06:34 56.41298 -3.40616 12196 ft 312 kts 213°
2026-04-22 06:34 56.39525 -3.42926 11820 ft 316 kts 213°
2026-04-22 06:34 56.37720 -3.45276 11444 ft 322 kts 213°
2026-04-22 06:35 56.35886 -3.47658 11051 ft 326 kts 213°
2026-04-22 06:35 56.34074 -3.50009 10904 ft 316 kts 213°
2026-04-22 06:35 56.32311 -3.52293 10746 ft 306 kts 213°
2026-04-22 06:35 56.30623 -3.54474 10610 ft 297 kts 213°
2026-04-22 06:36 56.28953 -3.56627 10352 ft 293 kts 213°
2026-04-22 06:36 56.27297 -3.58758 10024 ft 290 kts 213°
2026-04-22 06:36 56.25657 -3.60866 9725 ft 289 kts 213°
2026-04-22 06:36 56.24025 -3.62962 9411 ft 287 kts 212°
2026-04-22 06:37 56.22434 -3.65052 9127 ft 285 kts 213°
2026-04-22 06:37 56.20859 -3.67173 8910 ft 281 kts 214°
2026-04-22 06:37 56.19300 -3.69286 8713 ft 281 kts 214°
2026-04-22 06:37 56.17732 -3.71410 8513 ft 282 kts 214°
2026-04-22 06:38 56.16163 -3.73535 8321 ft 283 kts 214°
2026-04-22 06:38 56.14584 -3.75669 8112 ft 283 kts 214°
2026-04-22 06:38 56.13035 -3.77760 7917 ft 282 kts 214°
2026-04-22 06:38 56.11459 -3.79883 7711 ft 281 kts 214°
2026-04-22 06:39 56.09893 -3.81989 7508 ft 280 kts 214°
2026-04-22 06:39 56.08330 -3.84090 7310 ft 279 kts 214°
2026-04-22 06:39 56.06798 -3.86146 7113 ft 278 kts 214°
2026-04-22 06:39 56.05254 -3.88216 6909 ft 277 kts 214°
2026-04-22 06:40 56.03716 -3.90276 6688 ft 275 kts 214°
2026-04-22 06:40 56.02185 -3.92326 6475 ft 274 kts 214°
2026-04-22 06:40 56.00658 -3.94373 6262 ft 272 kts 214°
2026-04-22 06:40 55.99167 -3.96374 6058 ft 270 kts 214°
2026-04-22 06:41 55.97679 -3.98381 5844 ft 265 kts 214°
2026-04-22 06:41 55.96220 -4.00359 5634 ft 260 kts 214°
2026-04-22 06:41 55.94768 -4.02256 5418 ft 254 kts 206°
2026-04-22 06:41 55.93129 -4.03086 5243 ft 240 kts 175°
2026-04-22 06:42 55.91607 -4.02324 5122 ft 225 kts 144°
2026-04-22 06:42 55.90432 -4.00561 5073 ft 219 kts 135°
2026-04-22 06:42 55.89335 -3.98675 4971 ft 218 kts 134°
2026-04-22 06:42 55.88248 -3.96788 4913 ft 217 kts 134°
2026-04-22 06:43 55.87168 -3.94912 4855 ft 216 kts 134°
2026-04-22 06:43 55.86109 -3.93080 4800 ft 215 kts 134°
2026-04-22 06:43 55.85032 -3.91227 4743 ft 214 kts 134°
2026-04-22 06:43 55.83959 -3.89385 4693 ft 214 kts 134°
2026-04-22 06:44 55.82895 -3.87563 4658 ft 209 kts 134°
2026-04-22 06:44 55.81860 -3.85798 4608 ft 203 kts 134°
2026-04-22 06:44 55.80847 -3.84055 4555 ft 202 kts 130°
2026-04-22 06:44 55.80278 -3.81857 4470 ft 203 kts 91°
2026-04-22 06:45 55.80732 -3.79494 4449 ft 207 kts 58°
2026-04-22 06:45 55.81534 -3.77342 4405 ft 208 kts 62°
2026-04-22 06:45 55.82260 -3.75160 4341 ft 201 kts 62°
2026-04-22 06:45 55.82962 -3.73042 4285 ft 197 kts 62°
2026-04-22 06:46 55.83654 -3.70969 4213 ft 191 kts 62°
2026-04-22 06:46 55.84308 -3.69014 4146 ft 183 kts 62°
2026-04-22 06:46 55.84954 -3.67087 3923 ft 178 kts 62°
2026-04-22 06:46 55.85582 -3.65211 3668 ft 174 kts 62°
2026-04-22 06:47 55.86198 -3.63374 3433 ft 170 kts 62°
2026-04-22 06:47 55.86798 -3.61588 3203 ft 166 kts 62°
2026-04-22 06:47 55.87384 -3.59844 2978 ft 162 kts 61°
2026-04-22 06:47 55.87944 -3.58177 2754 ft 152 kts 61°
2026-04-22 06:48 55.88465 -3.56629 2572 ft 140 kts 61°
2026-04-22 06:48 55.88963 -3.55145 2361 ft 139 kts 61°
2026-04-22 06:48 55.89452 -3.53689 2160 ft 140 kts 61°
2026-04-22 06:48 55.89961 -3.52176 1958 ft 143 kts 60°
2026-04-22 06:49 55.90471 -3.50661 1762 ft 140 kts 61°
2026-04-22 06:49 55.90967 -3.49228 1582 ft 134 kts 60°
2026-04-22 06:49 55.91460 -3.47786 1388 ft 139 kts 61°
2026-04-22 06:49 55.91957 -3.46292 1237 ft 140 kts 60°
2026-04-22 06:50 55.92467 -3.44788 1025 ft 142 kts 59°
2026-04-22 06:50 55.92976 -3.43278 787 ft 142 kts 60°
2026-04-22 06:50 55.93472 -3.41772 572 ft 139 kts 60°
2026-04-22 06:50 55.93966 -3.40311 357 ft 137 kts 60°
2026-04-22 06:51 55.94439 -3.38902 175 ft 129 kts 59°
2026-04-22 06:51 55.94890 -3.37574 111 ft 108 kts 59°
2026-04-22 06:51 55.95168 -3.36751 111 ft 49 kts 59°
2026-04-22 06:51 55.95305 -3.36343 110 ft 33 kts 59°
2026-04-22 06:52 55.95419 -3.36008 110 ft 30 kts 59°
2026-04-22 06:52 55.95522 -3.35700 112 ft 28 kts 59°
2026-04-22 06:52 55.95508 -3.35447 113 ft 21 kts 143°
2026-04-22 06:52 55.95403 -3.35483 113 ft 17 kts 239°
2026-04-22 06:53 55.95341 -3.35666 115 ft 17 kts 239°
2026-04-22 06:53 55.95281 -3.35841 115 ft 16 kts 239°
2026-04-22 06:53 55.95224 -3.36010 115 ft 16 kts 238°
2026-04-22 06:53 55.95168 -3.36172 113 ft 15 kts 239°
2026-04-22 06:54 55.95117 -3.36327 114 ft 14 kts 239°
2026-04-22 06:54 55.95065 -3.36484 114 ft 16 kts 239°
2026-04-22 06:54 55.95005 -3.36663 115 ft 18 kts 238°
2026-04-22 06:54 55.94931 -3.36821 114 ft 15 kts 189°
2026-04-22 06:55 55.94829 -3.36778 115 ft 15 kts 178°
2026-04-22 06:55 55.94732 -3.36739 115 ft 14 kts 169°
2026-04-22 06:55 55.94665 -3.36731 115 ft 6 kts 156°
2026-04-22 06:55 55.94656 -3.36664 115 ft 6 kts 88°
2026-04-22 06:56 55.94657 -3.36621 115 ft 0 kts 88°